Time,TemperatureF,DewpointF,PressureIn,WindDirection,WindDirectionDegrees,WindSpeedMPH,WindSpeedGustMPH,Humidity,HourlyPrecipIn,Conditions,Clouds,dailyrainin,SoftwareType,DateUTC
2013-08-27 00:01:00,74.2,74.0,30.08,SSW,194,0.0,1.0,98,0.00,,,1.52,weatherlink.com 1.10,2013-08-27 04:01:00,
2013-08-27 00:16:00,74.4,74.0,30.07,SSW,194,1.0,1.0,98,0.00,,,1.52,weatherlink.com 1.10,2013-08-27 04:16:00,
2013-08-27 00:31:00,74.4,74.0,30.06,SSW,194,0.0,2.0,98,0.00,,,1.52,weatherlink.com 1.10,2013-08-27 04:31:00,
2013-08-27 00:46:00,74.4,74.0,30.04,SSW,194,0.0,1.0,98,0.00,,,1.52,weatherlink.com 1.10,2013-08-27 04:46:00,
2013-08-27 01:01:00,74.9,74.0,30.05,SSW,196,1.0,3.0,98,0.00,,,1.52,weatherlink.com 1.10,2013-08-27 05:01:00,
2013-08-27 01:16:00,75.1,75.0,30.05,SSW,198,0.0,0.0,98,0.00,,,1.52,weatherlink.com 1.10,2013-08-27 05:16:00,
2013-08-27 01:31:00,75.2,75.0,30.06,SSW,198,0.0,0.0,98,0.00,,,1.52,weatherlink.com 1.10,2013-08-27 05:31:00,
2013-08-27 01:46:00,74.9,74.0,30.05,SSW,200,2.0,3.0,98,0.00,,,1.52,weatherlink.com 1.10,2013-08-27 05:46:00,
2013-08-27 02:01:00,75.1,75.0,30.04,WNW,292,1.0,5.0,98,0.00,,,1.52,weatherlink.com 1.10,2013-08-27 06:01:00,
2013-08-27 02:16:00,75.0,74.0,30.04,WNW,292,2.0,3.0,98,0.00,,,1.52,weatherlink.com 1.10,2013-08-27 06:16:00,
2013-08-27 02:31:00,74.9,74.0,30.03,WNW,292,0.0,1.0,98,0.00,,,1.52,weatherlink.com 1.10,2013-08-27 06:31:00,
2013-08-27 02:46:00,74.9,74.0,30.03,WNW,292,0.0,0.0,98,0.00,,,1.52,weatherlink.com 1.10,2013-08-27 06:46:00,
2013-08-27 03:01:00,74.9,74.0,30.03,WNW,292,0.0,0.0,98,0.00,,,1.52,weatherlink.com 1.10,2013-08-27 07:01:00,
2013-08-27 03:16:00,74.6,74.0,30.03,WNW,292,2.0,2.0,98,0.00,,,1.52,weatherlink.com 1.10,2013-08-27 07:16:00,
2013-08-27 03:31:00,74.7,74.0,30.03,WNW,292,0.0,1.0,98,0.00,,,1.52,weatherlink.com 1.10,2013-08-27 07:31:00,
2013-08-27 03:46:00,74.7,74.0,30.03,WNW,292,0.0,1.0,98,0.00,,,1.52,weatherlink.com 1.10,2013-08-27 07:46:00,
2013-08-27 04:01:00,74.7,74.0,30.04,WNW,292,1.0,2.0,98,0.00,,,1.52,weatherlink.com 1.10,2013-08-27 08:01:00,
2013-08-27 04:16:00,74.8,74.0,30.03,WNW,292,0.0,1.0,98,0.00,,,1.52,weatherlink.com 1.10,2013-08-27 08:16:00,
2013-08-27 04:31:00,74.7,74.0,30.03,WNW,292,0.0,0.0,98,0.00,,,1.52,weatherlink.com 1.10,2013-08-27 08:31:00,
2013-08-27 04:46:00,74.5,74.0,30.02,WNW,292,0.0,0.0,98,0.00,,,1.52,weatherlink.com 1.10,2013-08-27 08:46:00,
2013-08-27 05:01:00,74.3,74.0,30.02,WNW,292,0.0,0.0,98,0.00,,,1.52,weatherlink.com 1.10,2013-08-27 09:01:00,
2013-08-27 05:16:00,74.3,74.0,30.02,WNW,292,0.0,1.0,98,0.00,,,1.52,weatherlink.com 1.10,2013-08-27 09:16:00,
2013-08-27 05:31:00,74.4,74.0,30.02,WNW,292,2.0,3.0,98,0.00,,,1.52,weatherlink.com 1.10,2013-08-27 09:31:00,
2013-08-27 05:46:00,74.4,74.0,30.02,WNW,292,0.0,1.0,98,0.00,,,1.52,weatherlink.com 1.10,2013-08-27 09:46:00,
2013-08-27 06:01:00,74.3,74.0,30.02,WNW,292,0.0,2.0,98,0.00,,,1.52,weatherlink.com 1.10,2013-08-27 10:01:00,
2013-08-27 06:16:00,74.4,74.0,30.02,WNW,292,3.0,4.0,98,0.00,,,1.52,weatherlink.com 1.10,2013-08-27 10:16:00,
2013-08-27 06:31:00,74.5,74.0,30.03,WNW,292,2.0,3.0,98,0.00,,,1.52,weatherlink.com 1.10,2013-08-27 10:31:00,
2013-08-27 06:46:00,74.4,74.0,30.02,WNW,292,0.0,2.0,98,0.00,,,1.52,weatherlink.com 1.10,2013-08-27 10:46:00,
2013-08-27 07:01:00,74.6,74.0,30.02,WNW,292,0.0,1.0,98,0.00,,,1.52,weatherlink.com 1.10,2013-08-27 11:01:00,
2013-08-27 07:16:00,74.6,74.0,30.02,WNW,292,0.0,1.0,98,0.00,,,1.52,weatherlink.com 1.10,2013-08-27 11:16:00,
2013-08-27 07:31:00,74.7,74.0,30.03,WNW,292,0.0,1.0,98,0.00,,,1.52,weatherlink.com 1.10,2013-08-27 11:31:00,
2013-08-27 07:46:00,75.4,75.0,30.03,WNW,292,0.0,3.0,98,0.00,,,1.52,weatherlink.com 1.10,2013-08-27 11:46:00,
2013-08-27 08:01:00,75.8,75.0,30.04,WNW,292,3.0,4.0,97,0.00,,,1.52,weatherlink.com 1.10,2013-08-27 12:01:00,
2013-08-27 08:16:00,76.4,75.0,30.04,WNW,292,1.0,4.0,96,0.00,,,1.52,weatherlink.com 1.10,2013-08-27 12:16:00,
2013-08-27 08:31:00,76.3,75.0,30.05,WNW,292,2.0,5.0,95,0.01,,,1.53,weatherlink.com 1.10,2013-08-27 12:31:00,
2013-08-27 08:46:00,76.2,75.0,30.05,WNW,294,2.0,4.0,95,0.01,,,1.53,weatherlink.com 1.10,2013-08-27 12:46:00,
2013-08-27 09:01:00,76.5,75.0,30.05,WNW,295,1.0,4.0,95,0.01,,,1.53,weatherlink.com 1.10,2013-08-27 13:01:00,
2013-08-27 09:16:00,76.7,75.0,30.07,WNW,296,1.0,4.0,95,0.01,,,1.53,weatherlink.com 1.10,2013-08-27 13:16:00,
2013-08-27 09:31:00,77.1,76.0,30.07,NE,37,2.0,5.0,95,0.00,,,1.53,weatherlink.com 1.10,2013-08-27 13:31:00,
2013-08-27 09:46:00,77.2,75.0,30.07,NE,34,1.0,7.0,94,0.00,,,1.53,weatherlink.com 1.10,2013-08-27 13:46:00,
2013-08-27 10:01:00,77.3,76.0,30.07,NNE,18,1.0,7.0,94,0.00,,,1.53,weatherlink.com 1.10,2013-08-27 14:01:00,
2013-08-27 10:16:00,77.9,76.0,30.07,NNE,23,1.0,4.0,92,0.00,,,1.53,weatherlink.com 1.10,2013-08-27 14:16:00,
2013-08-27 10:31:00,78.8,75.0,30.08,NNE,22,0.0,3.0,87,0.00,,,1.53,weatherlink.com 1.10,2013-08-27 14:31:00,
2013-08-27 10:46:00,79.8,75.0,30.08,NNE,22,1.0,4.0,84,0.00,,,1.53,weatherlink.com 1.10,2013-08-27 14:46:00,
2013-08-27 11:01:00,80.6,75.0,30.08,NNE,23,0.0,2.0,82,0.00,,,1.53,weatherlink.com 1.10,2013-08-27 15:01:00,
2013-08-27 11:16:00,81.4,75.0,30.07,NNE,23,0.0,1.0,81,0.00,,,1.53,weatherlink.com 1.10,2013-08-27 15:16:00,
2013-08-27 11:31:00,81.5,76.0,30.08,NNE,17,4.0,4.0,82,0.00,,,1.53,weatherlink.com 1.10,2013-08-27 15:31:00,
2013-08-27 11:46:00,81.8,76.0,30.07,NNW,327,5.0,6.0,82,0.00,,,1.53,weatherlink.com 1.10,2013-08-27 15:46:00,
2013-08-27 12:01:00,82.2,75.0,30.07,North,350,1.0,6.0,78,0.00,,,1.53,weatherlink.com 1.10,2013-08-27 16:01:00,
2013-08-27 12:16:00,81.9,75.0,30.09,NNW,329,7.0,9.0,79,0.00,,,1.53,weatherlink.com 1.10,2013-08-27 16:16:00,
2013-08-27 12:31:00,79.5,73.0,30.07,North,349,3.0,15.0,80,0.00,,,1.53,weatherlink.com 1.10,2013-08-27 16:31:00,
2013-08-27 12:46:00,78.2,74.0,30.06,North,355,1.0,7.0,87,0.01,,,1.54,weatherlink.com 1.10,2013-08-27 16:46:00,
2013-08-27 13:01:00,77.5,75.0,30.06,NE,44,0.0,4.0,91,0.03,,,1.56,weatherlink.com 1.10,2013-08-27 17:01:00,
2013-08-27 13:16:00,77.9,76.0,30.06,NE,45,0.0,2.0,93,0.03,,,1.56,weatherlink.com 1.10,2013-08-27 17:16:00,
2013-08-27 13:32:00,78.4,76.0,30.05,NE,39,0.0,5.0,93,0.03,,,1.56,weatherlink.com 1.10,2013-08-27 17:32:00,
2013-08-27 13:47:00,79.0,77.0,30.04,NE,40,1.0,2.0,92,0.02,,,1.56,weatherlink.com 1.10,2013-08-27 17:47:00,
2013-08-27 14:02:00,79.5,76.0,30.04,NE,40,0.0,3.0,88,0.00,,,1.56,weatherlink.com 1.10,2013-08-27 18:02:00,
2013-08-27 14:17:00,80.9,77.0,30.04,NE,41,0.0,3.0,87,0.00,,,1.56,weatherlink.com 1.10,2013-08-27 18:17:00,
2013-08-27 14:32:00,83.2,77.0,30.04,NE,55,0.0,7.0,81,0.00,,,0.00,weatherlink.com 1.10,2013-08-27 18:32:00,
2013-08-27 14:47:00,84.8,76.0,30.03,East,80,6.0,8.0,74,0.01,,,0.01,weatherlink.com 1.10,2013-08-27 18:47:00,
2013-08-27 15:02:00,85.5,76.0,30.03,ENE,71,1.0,7.0,74,0.01,,,0.01,weatherlink.com 1.10,2013-08-27 19:02:00,
2013-08-27 15:17:00,85.3,75.0,30.02,ENE,71,3.0,3.0,71,0.01,,,0.01,weatherlink.com 1.10,2013-08-27 19:17:00,
2013-08-27 15:32:00,85.0,75.0,30.02,ENE,61,2.0,7.0,71,0.01,,,0.01,weatherlink.com 1.10,2013-08-27 19:32:00,
2013-08-27 15:47:00,85.2,75.0,30.02,East,94,3.0,8.0,71,0.00,,,0.01,weatherlink.com 1.10,2013-08-27 19:47:00,
2013-08-27 16:02:00,85.5,75.0,30.02,NE,54,1.0,4.0,71,0.00,,,0.01,weatherlink.com 1.10,2013-08-27 20:02:00,
2013-08-27 16:17:00,85.1,74.0,30.01,NNE,26,2.0,6.0,70,0.00,,,0.01,weatherlink.com 1.10,2013-08-27 20:17:00,
2013-08-27 16:32:00,85.7,74.0,30.01,NE,47,1.0,7.0,69,0.00,,,0.01,weatherlink.com 1.10,2013-08-27 20:32:00,
2013-08-27 17:02:00,87.0,75.0,30.00,NE,41,0.0,7.0,67,0.00,,,0.01,weatherlink.com 1.10,2013-08-27 21:02:00,
2013-08-27 17:47:00,86.9,73.0,30.01,NNW,341,1.0,6.0,63,0.00,,,0.01,weatherlink.com 1.10,2013-08-27 21:47:00,
2013-08-27 18:02:00,86.5,73.0,30.01,NE,47,0.0,5.0,65,0.00,,,0.01,weatherlink.com 1.10,2013-08-27 22:02:00,
2013-08-27 18:17:00,85.3,73.0,30.01,North,5,3.0,5.0,66,0.00,,,0.01,weatherlink.com 1.10,2013-08-27 22:17:00,
2013-08-27 18:32:00,84.2,73.0,30.02,North,5,1.0,5.0,68,0.00,,,0.01,weatherlink.com 1.10,2013-08-27 22:32:00,
2013-08-27 18:47:00,84.1,73.0,30.02,NE,49,1.0,4.0,70,0.00,,,0.01,weatherlink.com 1.10,2013-08-27 22:47:00,
2013-08-27 19:02:00,83.4,74.0,30.02,NE,47,0.0,6.0,73,0.00,,,0.01,weatherlink.com 1.10,2013-08-27 23:02:00,
2013-08-27 19:17:00,82.8,74.0,30.03,ENE,59,1.0,4.0,74,0.00,,,0.01,weatherlink.com 1.10,2013-08-27 23:17:00,
2013-08-27 19:32:00,82.2,74.0,30.03,ENE,63,0.0,4.0,76,0.00,,,0.01,weatherlink.com 1.10,2013-08-27 23:32:00,
2013-08-27 19:47:00,81.6,74.0,30.02,ENE,63,1.0,3.0,78,0.00,,,0.01,weatherlink.com 1.10,2013-08-27 23:47:00,
2013-08-27 20:02:00,81.0,74.0,30.03,ENE,62,2.0,4.0,79,0.00,,,0.01,weatherlink.com 1.10,2013-08-28 00:02:00,
2013-08-27 20:17:00,80.7,74.0,30.04,ENE,59,0.0,5.0,80,0.00,,,0.01,weatherlink.com 1.10,2013-08-28 00:17:00,
2013-08-27 20:32:00,80.6,74.0,30.04,ENE,59,4.0,4.0,80,0.00,,,0.01,weatherlink.com 1.10,2013-08-28 00:32:00,
2013-08-27 20:47:00,80.6,74.0,30.04,ENE,59,0.0,3.0,80,0.00,,,0.01,weatherlink.com 1.10,2013-08-28 00:47:00,
2013-08-27 21:17:00,80.5,75.0,30.03,ENE,59,0.0,3.0,83,0.00,,,0.01,weatherlink.com 1.10,2013-08-28 01:17:00,
2013-08-27 21:32:00,80.2,75.0,30.03,ENE,57,0.0,6.0,83,0.00,,,0.01,weatherlink.com 1.10,2013-08-28 01:32:00,
2013-08-27 21:47:00,80.0,74.0,30.03,ENE,57,0.0,3.0,83,0.00,,,0.01,weatherlink.com 1.10,2013-08-28 01:47:00,
2013-08-27 22:02:00,79.7,74.0,30.04,ENE,57,0.0,3.0,83,0.00,,,0.01,weatherlink.com 1.10,2013-08-28 02:02:00,
2013-08-27 22:17:00,79.3,74.0,30.04,ENE,57,0.0,1.0,83,0.00,,,0.01,weatherlink.com 1.10,2013-08-28 02:17:00,
2013-08-27 22:32:00,79.1,74.0,30.05,ENE,57,0.0,1.0,83,0.00,,,0.01,weatherlink.com 1.10,2013-08-28 02:32:00,
2013-08-27 22:47:00,79.0,73.0,30.05,ENE,57,1.0,2.0,82,0.00,,,0.01,weatherlink.com 1.10,2013-08-28 02:47:00,
2013-08-27 23:02:00,78.9,73.0,30.05,ENE,57,1.0,3.0,83,0.00,,,0.01,weatherlink.com 1.10,2013-08-28 03:02:00,
2013-08-27 23:17:00,78.7,73.0,30.05,ENE,57,0.0,2.0,83,0.00,,,0.01,weatherlink.com 1.10,2013-08-28 03:17:00,
2013-08-27 23:32:00,78.5,73.0,30.05,ENE,57,0.0,1.0,84,0.00,,,0.01,weatherlink.com 1.10,2013-08-28 03:32:00,
2013-08-27 23:47:00,78.5,74.0,30.05,ENE,57,0.0,1.0,85,0.00,,,0.01,weatherlink.com 1.10,2013-08-28 03:47:00,